Location: Hemaruka
(51.7801°N, 111.0917°W)
Time: 10:08:12
(UTC+00:00)

NOAA 15 - Pass Details

Date: 16 December 2023
Orbit: 797 x 810 km, 98.6° (Epoch: 02 March)

Event Time Altitude Azimuth Distance (km) Brightness Sun altitude
Rises 01:16:55 0° 142° (SE) 3,313 7.6 -17.7°
Reaches altitude 10° 01:19:20 10° 136° (SE) 2,384 6.8 -18.1°
Maximum altitude 01:24:19 45° 65° (ENE) 1,092 4.8 -18.8°
Drops below altitude 10° 01:29:19 10° 355° (N) 2,391 7.0 -19.6°
Sets 01:31:44 0° 349° (N) 3,324 7.8 -19.9°
